LRFT Weather Reports


Display with metric or nautical units.
time (UTC)temp
F
wind
direction
speed
MPH
gust
MPH
rain 1hr
in
rain 24hr
in
rain mn
in
humidity
%
barometer
mb
20260504041900 37 330 10.0 0.0 0.00 0.00 0.00 87 1016.0
20260504040359 37 330 10.0 0.0 0.00 0.00 0.00 87 1016.0
20260504034900 37 330 9.0 0.0 0.00 0.00 0.00 81 1016.0
20260504033359 37 330 9.0 0.0 0.00 0.00 0.00 81 1016.0
20260504031856 37 330 9.0 0.0 0.00 0.00 0.00 81 1016.0
20260504030524 0 0.0 0.0 0.00 0.00 0.00
20260504024857 0 0.0 0.0 0.00 0.00 0.00
20260504023359 0 0.0 0.0 0.00 0.00 0.00
20260504021856 0 0.0 0.0 0.00 0.00 0.00
20260504020400 0 0.0 0.0 0.00 0.00 0.00
20260504014900 0 0.0 0.0 0.00 0.00 0.00
20260504013405 0 0.0 0.0 0.00 0.00 0.00
20260504012023 0 0.0 0.0 0.00 0.00 0.00
20260504010400 0 0.0 0.0 0.00 0.00 0.00
20260504005023 0 0.0 0.0 0.00 0.00 0.00
20260504003359 0 0.0 0.0 0.00 0.00 0.00
20260504001900 0 0.0 0.0 0.00 0.00 0.00
20260504000401 0 0.0 0.0 0.00 0.00 0.00
20260503234936 39 90 6.0 0.0 0.00 0.00 0.00 81 1018.0
20260503233359 39 90 6.0 0.0 0.00 0.00 0.00 81 1018.0
20260503231900 0 0.0 0.0 0.00 0.00 0.00
20260503230412 0 0.0 0.0 0.00 0.00 0.00
20260503224856 0 0.0 0.0 0.00 0.00 0.00
20260503223408 0 0.0 0.0 0.00 0.00 0.00
20260503221916 0 0.0 0.0 0.00 0.00 0.00
20260503220441 0 0.0 0.0 0.00 0.00 0.00
20260503214903 41 120 7.0 0.0 0.00 0.00 0.00 81 1019.0
20260503213359 41 120 7.0 0.0 0.00 0.00 0.00 81 1019.0
20260503211900 41 120 7.0 0.0 0.00 0.00 0.00 81 1019.0
20260503210359 41 120 7.0 0.0 0.00 0.00 0.00 81 1019.0
20260503204906 41 120 7.0 0.0 0.00 0.00 0.00 81 1019.0
20260503203522 0 0.0 0.0 0.00 0.00 0.00
20260503201900 41 120 6.0 0.0 0.00 0.00 0.00 81 1019.0
20260503200409 41 120 6.0 0.0 0.00 0.00 0.00 81 1019.0
20260503194925 41 120 6.0 0.0 0.00 0.00 0.00 81 1019.0
20260503193524 0 0.0 0.0 0.00 0.00 0.00
20260503191857 0 0.0 0.0 0.00 0.00 0.00
20260503190400 0 0.0 0.0 0.00 0.00 0.00
20260503185022 0 0.0 0.0 0.00 0.00 0.00
20260503183359 45 130 6.0 0.0 0.00 0.00 0.00 81 1019.0
20260503181859 45 130 6.0 0.0 0.00 0.00 0.00 81 1019.0
20260503180359 45 130 6.0 0.0 0.00 0.00 0.00 81 1019.0
20260503174919 54 40 9.0 0.0 0.00 0.00 0.00 67 1019.0
20260503173424 54 40 9.0 0.0 0.00 0.00 0.00 67 1019.0
20260503171859 54 40 9.0 0.0 0.00 0.00 0.00 67 1019.0
20260503170400 54 40 9.0 0.0 0.00 0.00 0.00 67 1019.0
20260503150359 0 0.0 0.0 0.00 0.00 0.00
20260503130400 0 0.0 0.0 0.00 0.00 0.00
20260503110420 57 30 14.0 0.0 0.00 0.00 0.00 41 1021.0
20260503090420 0 0.0 0.0 0.00 0.00 0.00
20260503080410 55 50 16.0 0.0 0.00 0.00 0.00 51 1022.0
20260503071858 52 30 14.0 0.0 0.00 0.00 0.00 54 1022.0
20260503070400 52 30 14.0 0.0 0.00 0.00 0.00 54 1022.0
20260503054859 43 10 11.0 0.0 0.00 0.00 0.00 81 1022.0
20260503053359 43 10 11.0 0.0 0.00 0.00 0.00 81 1022.0
20260503051856 43 10 11.0 0.0 0.00 0.00 0.00 81 1022.0
20260503050400 0 0.0 0.0 0.00 0.00 0.00
20260503044856 34 30 3.0 0.0 0.00 0.00 0.00 100 1022.0
20260503043401 34 30 3.0 0.0 0.00 0.00 0.00 100 1022.0